THORAD AGENA D DEB, 4932

Orbit data source: Space-Track

THORAD AGENA D DEB, 4932 is space debris in SSO originally from a launch on Wed, 08 Apr 1970 UTC launched from the Air Force Western Test Range (AFWTR). Debris objects in space refer to the collection of defunct objects orbiting the Earth. Examples of debris include non-operational satellites, rocket bodies, and fragments generated from explosions, collisions, or faulty payload assembly.

Loading next visibility...
Identifier
4932, 1970-025FY
Orbit
SSO
Country
Flag of USUS
Related business
Manufacturer
Unknown
Mission
Spacecraft
Bus & Motor
Unknown
Mass
Unknown
Launch date (UTC)
1970-04-08 (56 years ago)
Launch vehicle
Unknown
Launch site
Air Force Western Test Range (AFWTR)
Object type
Payload
Rocket body
Debris
Shape & HBR
Unknown shape, 0.1 m
Radar Cross Section
Small (<0.1 m²)

Expand to show TLE details & history
Last TLE update: 4 hours ago

TLE from 4 hours ago
0 THORAD AGENA D DEB
1  4932U 70025FY  26036.49362370  .00003493  00000-0  24753-2 0  9995
2  4932  99.8091  49.2118 0028048 323.7651 191.0087 13.98262012784762
Epoch: 2026-02-05T11:50Z
TLE epoch observation values (Epoch: 2026-02-05T11:50:49.087Z)
Latitude
24.92145°
Longitude
-79.55421°
Altitude
922.816 km
Speed
7.382 km/s
True Right ascension
15h 35m 10s
True Declination
24° 47' 36"
Sunlit
Object was in daylight at epoch
Visualization orbit readout
Latitude
Unknown
Longitude
Unknown
Altitude
Unknown
Speed
Unknown
Apparent Right ascension
Unknown
Apparent Declination
Unknown
Sunlit
N/A
Visualization observer readout
Local Sidereal Time
18:13:42
Azimuth
Unknown
Elevation
Unknown
Doppler factor
Unknown
Orbital elements
Apogee altitude
917.468 km
Perigee altitude
876.657 km
Semi-major axis
7,275.2 km
Eccentricity
0.0028
Inclination
99.8091°
RAAN
49.2118°
Arg. of periapsis
323.7651°
True anomaly
190.94754°
Mean anomaly
191.0087°
Eccentric anomaly
190.9781°
Mean motion
3.49765 °/min
Orbital period
102.93 mins
BSTAR
0.0024753
Loading maneuver chart data...
Computing Atmospheric mass density...

Documentation

Showing up to 5 results
|